Regional Weather Roundup
Issued by NWS Newport/Morehead, NC

Home | Current Version | Previous Version | Text Only | Print | Product List | Glossary On
Versions: 1 2 3 4 5 6 7 8 9 10 11 12 13 14 15 16 17 18 19 20 21 22 23 24 25 26 27 28 29 30 31 32 33 34 35 36 37 38 39 40 41 42 43 44 45 46 47 48 49 50
000
ASUS42 KMHX 010025
RWRMHX
WEATHER ROUNDUP FOR EASTERN NORTH CAROLINA
NATIONAL WEATHER SERVICE NEWPORT/MOREHEAD CITY NC
800 PM EDT FRI JUL 31 2015

NOTE: "FAIR" INDICATES FEW OR NO CLOUDS BELOW 12,000 FEET
WITH NO SIGNIFICANT WEATHER AND/OR OBSTRUCTIONS TO VISIBILITY

NCZ015>017-031-032-045>047-102-103-010100-
NORTH COAST

CITY           SKY/WX    TMP DP  RH WIND       PRES   REMARKS
EDENTON          N/A     80  65  62 SE5       29.91R
ELIZABETH CITY CLEAR     80  68  66 E3        29.90R
KITTY HAWK     CLEAR     82  65  56 CALM      29.89S
MANTEO         CLEAR     79  66  65 NE3       29.90S

$$

NCZ045>047-081-094-103-104-010100-
CENTRAL COAST

CITY           SKY/WX    TMP DP  RH WIND       PRES   REMARKS
FRISCO         MOCLDY    81  71  71 CALM      29.90S
SWANQUARTER      N/A     81 N/A N/A SE1       29.88R

$$

NCZ095-097-098-100-101-010100-
SOUTHERN COAST

CITY           SKY/WX    TMP DP  RH WIND       PRES   REMARKS
BEAUFORT       LGT RAIN  76  73  91 SW15      29.92R
CEDAR ISLAND     N/A     82 N/A N/A E5        29.94S
JACKSONVILLE   MOCLDY    82  74  76 S10G23    29.89R THUNDER
PINEY ISLAND   PTCLDY   N/A N/A N/A SE6       29.91R
WILMINGTON     LGT RAIN  76  74  93 S5        29.91S


$$

NCZ011>013-027>030-043-044-078>080-089-090>093-098-010100-
COASTAL PLAIN

CITY           SKY/WX    TMP DP  RH WIND       PRES   REMARKS
AHOSKIE        CLEAR     80  67  65 CALM      29.91R
CLINTON        CLEAR     84  72  68 CALM      29.90S
ELIZABETHTOWN  PTCLDY    81  71  71 SE10      29.92R
GOLDSBORO      CLEAR     89  68  50 N3        29.88R
GREENVILLE     MOCLDY    86  73  66 SE7       29.92S
HAVELOCK       MOCLDY    82  74  76 SE8       29.91R
KENANSVILLE    PTCLDY   N/A N/A N/A CALM      29.91R
KINSTON        NOT AVBL
NEW BERN       PTCLDY    84  75  74 E7        29.91R
RICHLANDS      MOCLDY    84  72  65 S9        29.91R
ROCKY MOUNT    PTCLDY    88  63  43 N6        29.91R
WASHINGTON     CLEAR     82  71  69 CALM      29.90S
WHITEVILLE     LGT RAIN  78  74  87 S9        29.91R

$$

AMZ130-135-150-152-154-156-158-170-250-252-270-ANZ085-086-088-633-658-670-010100-
MARINE OBSERVATIONS

STATION/POSITION TIME  TEMP    WIND        PRES    WAVE   SWELL
                       AIR SEA DIR/SP/G            HT/PER HT/PER
                 (UTC) (F)     (DEG/KT/KT) (MB)    (FT/S) (FT/S)
CHESAPEAKE LIGHT 0000   81     200/  7/  7 1013.0
64 E VA BEACH    2350   81 82  320/  6/  8 1011.5    3/ 9   3/ 9
DUCK             0000   81 80   50/  4/  5 1011.6
2 E DUCK         2311      80                N/A     4/ 5   2/11
OREGON INLET     0000   81 86   10/  3/  5 1012.4
13E OREGON INLT  0000      82                N/A     4/ 9   2/11
HATTERAS CG      0000   82 84   60/  3/  4 1012.3
DIAMOND BUOY     2250   81 86  360/  4/  6 1012.6    4/ 9   3/ 9
CAPE LOOKOUT     0000   80     340/  5/  9 1012.6
BEAUFORT LAB     0000   77 83  200/ 11/ 14 1012.5
30 SE NEW RVR IN NOT AVBL
27 SE WRIGHTSVLE 2300   80 83  230/ 14/ 17   N/A
5 SE WRIGHTSVLE  2308   81 83  250/ 12/ 17 1012.6
225 S CAPE HAT   2350   82 81  230/ 16/ 19 1015.2    8/ 8   2/11
41 SE CHARLESTON 2350   82 84  190/ 14/ 16 1012.5    3/ 8   2/ 8

$$


USA.gov is the U.S. government's official web portal to all federal, state and local government web resources and services.